Weather History for KEYW - November, 2013

Change the Weather History Date:

Sunday, November 3, 2013

  Actual Average Record
Temperature  
Mean Temperature 77 °F 78 °F  
Max Temperature 80 °F 82 °F 91 °F (1876)
Min Temperature 73 °F 74 °F 63 °F (1966)
Degree Days  
Heating Degree Days 0 0  
Month to date heating degree days 0 0  
Since 1 July heating degree days 0 0  
Cooling Degree Days 12 13  
Month to date cooling degree days 42 39  
Year to date cooling degree days 4428 4247  
Growing Degree Days 26 (Base 50)    
Moisture  
Dew Point 64 °F    
Average Humidity 67    
Maximum Humidity 76    
Minimum Humidity 58    
Precipitation  
Precipitation T in 0.10 in 1.86 in (1906)
Month to date precipitation 0.00 0.31  
Year to date precipitation 41.35 35.62  
Snow  
Snow 0.00 in - - ()
Month to date snowfall 0.0  
Since 1 July snowfall 0.0  
Since 1 September snowfall 0.0  
Snow Depth 0.00 in    
Sea Level Pressure  
Sea Level Pressure 29.96 in    
Wind  
Wind Speed 14 mph (NNE)    
Max Wind Speed 22 mph    
Max Gust Speed 29 mph    
Visibility 10 miles    
Events      
T = Trace of Precipitation, MM = Missing Value Source: NWS Daily Summary

Daily Weather History Graph

Daily Weather History Graph

Search for Another Location

Airport or City:

Trip Planner

Search our weather history database for the weather conditions in past years. The results will help you decide how hot, cold, wet, or windy it might be!

Date:

Astronomy

Nov. 03, 2013 Rise Set
Actual Time 6:35 AM EST 5:45 PM EST
Civil Twilight 6:11 AM EST 6:09 PM EST
Nautical Twilight 5:44 AM EST 6:36 PM EST
Astronomical Twilight 5:17 AM EST 7:02 PM EST
Moon 6:36 AM EST (11/3) 6:02 PM EST (11/3)
Length of Visible Light 11h 57m
Length of Day
11h 10m
New Moon, 0% of the Moon is Illuminated
Nov 3
New Moon
Nov 10
First Quarter
Nov 17
Full
Nov 25
Last Quarter
Dec 2
New

Hourly Weather History & Observations

Time (EST) Temp. Heat Index Dew Point Humidity Pressure Visibility Wind Dir Wind Speed Gust Speed Precip Events Conditions
12:53 AM 78.1 °F - 70.0 °F 76% 29.93 in 10.0 mi NNE 10.4 mph - N/A   Clear
1:53 AM 77.0 °F - 69.1 °F 76% 29.92 in 10.0 mi North 10.4 mph - N/A   Mostly Cloudy
1:53 AM 77.0 °F - 64.0 °F 64% 29.91 in 10.0 mi North 11.5 mph 18.4 mph N/A   Overcast
2:53 AM 75.0 °F - 66.0 °F 73% 29.91 in 10.0 mi NNE 17.3 mph 23.0 mph N/A   Mostly Cloudy
3:53 AM 75.0 °F - 60.1 °F 60% 29.91 in 10.0 mi North 15.0 mph 23.0 mph N/A   Overcast
4:53 AM 75.0 °F - 61.0 °F 62% 29.91 in 10.0 mi North 13.8 mph 24.2 mph N/A   Overcast
5:53 AM 73.9 °F - 62.1 °F 66% 29.93 in 10.0 mi North 13.8 mph 23.0 mph N/A   Overcast
6:53 AM 73.9 °F - 61.0 °F 64% 29.95 in 10.0 mi NNE 11.5 mph 21.9 mph N/A   Overcast
7:53 AM 73.9 °F - 60.1 °F 62% 29.96 in 10.0 mi NNE 16.1 mph 24.2 mph N/A   Scattered Clouds
8:53 AM 75.9 °F - 62.1 °F 62% 29.98 in 10.0 mi NNE 15.0 mph 24.2 mph N/A   Mostly Cloudy
9:53 AM 75.9 °F - 64.0 °F 67% 30.01 in 10.0 mi NNE 17.3 mph 25.3 mph N/A   Clear
10:53 AM 77.0 °F - 64.0 °F 64% 29.99 in 10.0 mi NNE 18.4 mph 27.6 mph N/A   Scattered Clouds
11:53 AM 78.1 °F - 64.9 °F 64% 29.99 in 10.0 mi NNE 13.8 mph 28.8 mph N/A   Clear
12:53 PM 77.0 °F - 63.0 °F 62% 29.97 in 10.0 mi NNE 18.4 mph 24.2 mph N/A   Clear
1:53 PM 78.1 °F - 64.0 °F 62% 29.94 in 10.0 mi NNE 18.4 mph 26.5 mph N/A   Clear
2:53 PM 80.1 °F 81.9 °F 64.9 °F 60% 29.94 in 10.0 mi NNE 13.8 mph 21.9 mph N/A   Clear
3:53 PM 80.1 °F 81.9 °F 64.9 °F 60% 29.93 in 10.0 mi NNE 15.0 mph 21.9 mph N/A   Clear
4:53 PM 79.0 °F - 64.9 °F 62% 29.94 in 10.0 mi NNE 12.7 mph - N/A   Clear
5:53 PM 78.1 °F - 66.0 °F 66% 29.95 in 10.0 mi NNE 9.2 mph - N/A   Clear
6:53 PM 78.1 °F - 66.0 °F 66% 29.96 in 10.0 mi NNE 12.7 mph - N/A   Mostly Cloudy
7:53 PM 78.1 °F - 66.0 °F 66% 29.99 in 10.0 mi ENE 8.1 mph - N/A   Overcast
8:53 PM 77.0 °F - 66.0 °F 69% 30.00 in 10.0 mi NE 13.8 mph 23.0 mph N/A   Overcast
9:53 PM 75.9 °F - 63.0 °F 64% 30.01 in 10.0 mi NE 16.1 mph 26.5 mph N/A   Scattered Clouds
10:53 PM 75.0 °F - 63.0 °F 66% 30.01 in 10.0 mi NE 16.1 mph 24.2 mph N/A   Clear